Location: Abyssinia Baptist Church
(32.7840°N, 96.7578°W)
Time: 13:38:57
(UTC+00:00)

SKYMED 2 - Visible Passes

Search period start: 01 July 2022 00:00
Search period end: 11 July 2022 00:00
Orbit: 621 x 623 km, 97.9° (Epoch: 01 July)

Date Brightness Start Highest point End Pass type
(mag) Time Alt. Az. Time Alt. Az. Time Alt. Az.
03 Jul 7.1 10:35:53 10° E 10:37:23 12° ENE 10:38:54 10° NE visible
04 Jul 6.7 10:52:12 10° ESE 10:55:13 19° ENE 10:58:14 10° NNE visible
09 Jul 6.8 10:46:33 10° ESE 10:49:12 16° ENE 10:51:50 10° NNE visible
